#timestamp,LO_Frequency,Hit,StdDev 
1510819215.1,286047002.4,N
1510819235.8,286047002.4,N
1510819255.7,286047000.9,N
1510819275.5,286047000.3,N
1510819295.4,286046998.5,N
1510819315.2,286046999.0,N
1510819335.0,286046999.5,N
1510819335.9,286046999.5,N
1510819355.8,286046998.2,N
1510819375.6,286047000.1,N
1510819395.5,286047001.0,N
1510819415.3,286046998.2,N
1510819435.1,286046998.4,N
1510819455.9,286046999.2,N
1510819475.7,286046998.4,N
1510819495.6,286046999.9,N
1510819515.4,286046998.1,N
1510819535.2,286047000.8,N
1510819555.1,286046999.9,N
1510819556.0,286046999.9,N
1510819575.8,286047001.6,N
1510819595.7,286047002.6,N
1510819615.5,286047000.3,N
1510819635.3,286046999.9,N
1510819655.2,286047004.4,N
1510819675.0,286047000.2,N
1510819675.9,286047000.2,N
1510819695.8,286046999.7,N
1510819715.6,286047000.2,N
1510819735.4,286047000.8,N
1510819755.3,286046998.4,N
1510819775.1,286046998.6,N
1510819795.8,286047001.1,N
1510819815.7,286047000.6,N
1510819835.5,286047000.6,N
1510819855.4,286047000.2,N
1510819875.2,286047002.7,N
1510819895.0,286046999.7,N
1510819895.9,286046999.7,N
1510819915.8,286047002.1,N
1510819935.6,286047001.4,N
1510819955.4,286047000.4,N
1510819975.3,286047002.6,N
1510819995.1,286047002.4,N
1510820015.9,286047001.7,N
1510820035.7,286047000.1,N
1510820055.5,286047002.6,N
1510820075.4,286047002.4,N
1510820095.2,286046999.7,N
1510820115.0,286047000.6,N
1510820116.0,286047000.6,N
1510820135.8,286047001.1,N
1510820155.6,286047000.8,N
1510820175.5,286047000.0,N
1510820195.3,286047002.5,N
1510820215.1,286047002.7,N
1510820235.9,286047004.1,Y
1510820255.7,286047001.4,P
1510820275.6,286047002.1,P
1510820295.4,286047004.0,P
1510820315.2,286047001.5,N
1510820335.1,286047004.4,Y
1510820336.0,286047004.4,P
1510820355.8,286046999.9,N
1510820375.7,286047000.2,N
1510820395.5,286047002.7,N
1510820415.3,286047000.4,N
1510820435.2,286047000.7,N
1510820455.0,286047000.9,N
1510820455.9,286047000.9,N
1510820475.7,286046999.9,N
1510820495.6,286047000.6,N
1510820515.4,286047000.5,N
1510820535.3,286046998.3,N
1510820555.1,286047000.7,N
1510820575.8,286046998.5,N
1510820595.7,286047000.8,N
1510820615.5,286047000.9,N
1510820635.4,286047002.2,N
1510820655.2,286047003.9,N
1510820675.0,286047002.0,N
1510820675.9,286047002.0,N
1510820695.8,286047000.3,N
1510820715.6,286047000.1,N
1510820735.5,286047002.0,N
1510820755.3,286047002.2,N
1510820775.1,286047002.0,N
1510820795.9,286047000.0,N
1510820815.7,286047000.8,N
1510820835.6,286046999.7,N
1510820855.4,286047002.3,N
1510820875.2,286047002.0,N
1510820895.1,286047000.6,N
1510820896.0,286047000.6,N
1510820915.8,286046998.8,N
1510820935.6,286046999.3,N
1510820955.5,286046998.6,N
1510820975.3,286046996.7,N
1510820995.2,286046996.9,N
1510821015.9,286046997.0,N
1510821035.7,286046996.9,N
1510821055.6,286046997.1,N
1510821075.4,286046997.5,N
1510821095.3,286046997.2,N
1510821115.1,286046996.8,N
1510821116.0,286046996.8,N
1510821135.8,286046996.8,N
1510821155.7,286046996.5,N
1510821175.5,286046998.8,N
1510821195.4,286046998.3,N
1510821215.2,286047000.2,N
1510821235.0,286047000.7,N
1510821235.9,286047000.7,N
1510821255.8,286047001.0,N
1510821275.6,286047002.0,N
1510821295.4,286047000.6,N
1510821315.3,286047002.7,N
1510821335.1,286047000.6,N
1510821355.9,286047002.1,N
1510821375.7,286047002.0,N
1510821395.5,286047001.9,N
1510821415.4,286047001.3,N
1510821435.2,286047001.7,N
1510821455.0,286047001.3,N
1510821456.0,286047001.3,N
1510821475.8,286047001.6,N
1510821495.6,286046999.9,N
1510821515.5,286046999.9,N
1510821535.3,286046998.7,N
1510821555.1,286046998.3,N
1510821575.9,286046998.4,N
1510821595.7,286047000.2,N
1510821615.6,286047002.6,N
1510821635.4,286047004.0,N
1510821655.2,286047001.9,N
1510821675.1,286047001.4,N
1510821676.0,286047001.4,N
1510821695.8,286046999.7,N
1510821715.7,286046998.9,N
1510821735.5,286046998.5,N
1510821755.3,286046998.1,N
1510821775.2,286047001.0,N
1510821795.9,286046998.5,N
1510821815.7,286046998.7,N
1510821835.6,286046996.5,N
1510821855.4,286046998.8,N
1510821875.3,286047001.0,N
1510821895.2,286046998.9,N
1510821915.9,286046999.4,N
1510821935.7,286046999.4,N
1510821955.6,286046997.0,N
1510821975.4,286046999.6,N
1510821995.2,286046997.2,N
1510822015.1,286046997.3,N
1510822016.0,286046997.3,N
1510822035.8,286046998.1,N
1510822055.7,286047000.8,N
1510822075.5,286046999.3,N
1510822095.3,286047001.2,N
1510822115.2,286046998.6,N
1510822135.0,286046998.6,N
1510822135.9,286046998.6,N
1510822155.8,286046998.1,N
1510822175.6,286047001.0,N
1510822195.4,286046998.5,N
1510822215.3,286046998.5,N
1510822235.1,286046998.7,N
1510822255.9,286046999.7,N
1510822275.7,286047000.7,N
1510822295.5,286046999.9,N
1510822315.4,286047002.8,N
1510822335.2,286047000.4,N
1510822355.0,286047000.4,N
1510822355.9,286047000.4,N
1510822375.8,286047001.1,N
1510822395.6,286047004.3,Y
1510822415.5,286047004.4,P
1510822435.3,286047002.1,N
1510822455.1,286047002.3,N
1510822475.9,286047000.1,N
1510822495.7,286047001.2,N
1510822515.5,286046996.8,N
1510822535.4,286046998.8,N
1510822555.2,286046998.7,N
1510822575.1,286046998.8,N
1510822576.0,286046998.8,N
1510822595.8,286046998.8,N
1510822615.6,286047002.6,N
1510822635.5,286046999.9,N
1510822655.3,286046999.8,N
1510822675.1,286047001.2,N
1510822695.9,286047001.1,N
1510822715.7,286046998.4,N
1510822735.6,286046999.5,N
1510822755.4,286046999.1,N
1510822775.2,286047000.5,N
1510822795.1,286047002.1,N
1510822796.0,286047002.1,N
